Flag for Colombia Weather past 2 weeks in Santa Marta, Colombia

Now
84 °F

Passing clouds.


Feels Like: 87 °F
Forecast: 80 / 87 °F
Wind: 16 mph from Northeast

Location: Santa Marta / Simon Bolivar

Current Time: Apr 1, 2015 at 8:12:19 PM

Latest Report: Apr 1, 2015 at 7:00 PM


Visibility: N/A

Pressure: 29.77 "Hg

Humidity: 58%

Dew point: 68 °F

Location of Santa MartaLocation

Historic Weather in Santa Marta — Graph

°F

Santa Marta temperature yesterday

Maximum temperature yesterday: 93 °F (at 4:00 PM)
Minimum temperature yesterday: 75 °F (at 6:00 AM)
Average temperature yesterday: 84 °F

Past Weeks' High & Low Weather Summary

 TemperatureHumidityPressure
High95 °F (Apr 1, 2:00 PM)94% (Mar 31, 6:00 AM)30.02 "Hg (Mar 31, 6:00 AM)
Low73 °F (Mar 22, 6:00 AM)47% (Mar 18, 3:00 PM)29.77 "Hg (Mar 18, 3:00 PM)
Average84 °F68%29.90 "Hg
* Reported Mar 17 7:00 PM — Apr 1 6:00 PM, Santa Marta, Weather by CustomWeather, © 2015

Note: Actual official high and low records may vary slightly from our data, if they occured in-between our weather recording intervals... More about our weather records

Advertising

Santa Marta weather history for previous 24 hours

 ConditionsComfort  
Time TempWeatherWind HumidityBarometerVisibility
6:00 PM
Wed, Apr 1
88 °FPassing clouds.16 mph55%29.77 "HgN/A
5:00 PM90 °FPassing clouds.12 mph52%29.77 "HgN/A
4:00 PM93 °FPassing clouds.14 mph47%29.77 "HgN/A
3:00 PM95 °FPassing clouds.14 mph47%29.77 "HgN/A
2:00 PM95 °FPassing clouds.9 mph47%29.80 "HgN/A
1:00 PM88 °FPassing clouds.5 mph66%29.86 "HgN/A
12:00 PM86 °FPassing clouds.7 mph70%29.87 "HgN/A
11:00 AM84 °FPassing clouds.5 mph74%29.90 "HgN/A
10:00 AM84 °FPassing clouds.7 mph74%29.92 "HgN/A
9:00 AM82 °FPassing clouds.5 mph79%29.93 "HgN/A
8:00 AM82 °FPassing clouds.No wind74%29.91 "HgN/A
7:00 AM81 °FPassing clouds.No wind79%29.89 "HgN/A
6:00 AM77 °FScattered clouds.No wind79%29.87 "HgN/A
10:00 PM
Tue, Mar 31
82 °FPassing clouds.14 mph62%29.85 "HgN/A
9:00 PM82 °FPassing clouds.18 mph62%29.83 "HgN/A
8:00 PM82 °FPassing clouds.16 mph62%29.80 "HgN/A
Weather by CustomWeather, © 2015

See weather overviewHow to use our weather pages